Regional Weather Roundup
Issued by NWS

Home | Current Version | Previous Version | Text Only | Print | Product List | Glossary Off
Versions: 1 2 3 4 5 6 7 8 9 10 11 12 13 14 15 16 17 18 19 20 21 22 23 24 25 26 27 28 29 30 31 32 33 34 35 36 37 38 39 40 41 42 43 44 45 46 47 48 49 50

251
ASUS43 KMKX 220900
RWRWI

WISCONSIN REGIONAL WEATHER ROUNDUP
NATIONAL WEATHER SERVICE MILWAUKEE/SULLIVAN WI
400 AM CDT SUN OCT 22 2017

NOTE: "FAIR" INDICATES FEW OR NO CLOUDS BELOW 12,000 FEET WITH NO
SIGNIFICANT WEATHER AND/OR OBSTRUCTIONS TO VISIBILITY.

WIZ001-002-006>008-014>016-023>028-221000-
NORTHWEST WISCONSIN

CITY           SKY/WX    TMP DP  RH WIND       PRES   REMARKS
SUPERIOR ARPT  CLOUDY    49  46  90 SW7       29.78R
ASHLAND        CLOUDY    54  49  83 SW15      29.77R
HAYWARD        CLOUDY    50  46  86 SW9       29.83R
SIREN          CLOUDY    48  43  82 SW12      29.85R
CUMBERLAND     CLOUDY    46  43  87 W8        29.85S
RICE LAKE      CLOUDY    50  45  83 SW8       29.88R
CHETEK         CLOUDY    50  45  82 W5        29.87R
LADYSMITH      LGT RAIN  53  51  94 SW8       29.86R
EAU CLAIRE     NOT AVBL
MENOMONIE      CLOUDY    52  46  78 W8        29.87S
NEW RICHMOND   CLOUDY    48  43  81 W7        29.87R
OSCEOLA        CLOUDY    48  43  83 SW6       29.90R
$$

WIZ003>005-009-010-017-018-221000-
NORTH CENTRAL WISCONSIN

CITY           SKY/WX    TMP DP  RH WIND       PRES   REMARKS
MANITOWISH WTR CLOUDY    58  58 100 S10       29.75F
ARBOR VITAE    CLOUDY    60  58  94 S8        29.76F
WOODRUFF       CLOUDY    60  58  94 S8        29.76F
RHINELANDER    CLOUDY    60  60 100 S10G20    29.81F
EAGLE RIVER    NOT AVBL
LAND O LAKES   MOCLDY    59  58  97 S6        29.79F
PHILLIPS       DRIZZLE   51  51 100 SW8       29.81R
TOMAHAWK       DRIZZLE   59  58  96 S3        29.80F
MEDFORD        LGT RAIN  52  50  93 W13       29.84R
MERRILL        CLOUDY    60  60 100 S7        29.82F
$$

WIZ029-030-035-036-043>047-221000-
CENTRAL WISCONSIN

CITY           SKY/WX    TMP DP  RH WIND       PRES   REMARKS
WAUSAU         CLOUDY    60  58  92 S12       29.81F
MOSINEE        CLOUDY    59  59 100 S8        29.84F
MARSHFIELD     LGT RAIN  54  50  86 W12G22    29.83S
STEVENS POINT  CLOUDY    59  59 100 S5        29.84F
WAUPACA        PTCLDY    66  59  79 S5        29.85S
WAUTOMA        CLOUDY   N/A N/A N/A CALM      29.85F
WISC RAPIDS    CLOUDY    60  59  96 SW6       29.85S
CAMP DOUGLAS   NOT AVBL
$$

WIZ011>013-019>022-031-037>040-048>050-221000-
NORTHEAST WISCONSIN

CITY           SKY/WX    TMP DP  RH WIND       PRES   REMARKS
ANTIGO         PTCLDY    58  57  95 SW5       29.84F
SHAWANO        PTCLDY    66  58  75 S5        29.84F
OCONTO         MOCLDY    62  57  82 S6        29.87S
STURGEON BAY   CLOUDY    59  55  87 S18       29.88F
GREEN BAY      CLOUDY    66  59  78 S10       29.88S
MANITOWOC      CLOUDY    59  54  83 S13       29.91F
APPLETON       CLOUDY    64  54  68 S10       29.87R
CLINTONVILLE   NOT AVBL
OSHKOSH        CLOUDY    67  58  72 S14       29.87S
$$

WIZ032>034-041-042-053>061-221000-
SOUTHWEST WISCONSIN

CITY           SKY/WX    TMP DP  RH WIND       PRES   REMARKS
LA CROSSE      LGT RAIN  55  53  93 W5        29.88S
SPARTA         CLOUDY    53  52  97 CALM      29.89R
VIROQUA        CLOUDY    53  53 100 NW7       29.90R
BOSCOBEL       LGT RAIN  58  55  90 NW9       29.88R
PRAIRIE DU CHI DRIZZLE   55  52  90 NW12      29.89S
PLATTEVILLE    CLOUDY    62  61  97 SW5       29.87F
$$

WIZ056-057-062-063-064-067-068-221000-
SOUTH CENTRAL WISCONSIN

CITY           SKY/WX    TMP DP  RH WIND       PRES   REMARKS
REEDSBURG      CLOUDY    60  60 100 CALM      29.86S
BARABOO/DELLS  CLOUDY    62  57  84 SE3       29.84F
LONE ROCK      CLOUDY    61  61 100 CALM      29.85F
MINERAL POINT  LGT RAIN  63  61  94 CALM      29.87S
MADISON        CLOUDY    66  57  72 S12       29.87S
MIDDLETON      CLOUDY    68  58  68 S8        29.87F
WATERTOWN      DRIZZLE   66  60  80 SW10      29.89R
MONROE         RAIN      63  55  77 S10       29.88F
JANESVILLE     CLOUDY    70  55  60 S9G17     29.88S
$$

WIZ051-052-058>065-066-070>072-221000-
SOUTHEAST WISCONSIN

CITY           SKY/WX    TMP DP  RH WIND       PRES   REMARKS
MILWAUKEE      CLOUDY    68  56  65 S12       29.92F
WAUKESHA       CLOUDY    64  54  68 S9        29.92F
MILWAUKEE/TIMM CLOUDY    66  52  59 S10       29.92F
RACINE         CLOUDY    61  55  81 S10       29.94F
BURLINGTON     CLOUDY    66  58  74 S9        29.91F
KENOSHA        CLOUDY    67  55  65 S15       29.92F
FOND DU LAC    CLOUDY    68  55  63 S12G20    29.88S
SHEBOYGAN      MOCLDY    61  57  87 S8        29.91F
WEST BEND      PTCLDY    64  54  68 S9        29.90F
JUNEAU         CLOUDY    66  56  71 S10       29.90S
$$

LSZ147-162-221000-
LAKE SUPERIOR

STATION/POSITION TIME  TEMP    WIND        PRES    WAVE
                       AIR SEA DIR/SP/G            HT/PER
                 (UTC) (F)     (DEG/KT/KT) (MB)    (FT/S)
W MID LAKE BUOY  0750   58 52              1005.2R   2/ 4
DEVILS ISLAND    0800   55     240/ 24/ 29 1005.9F
PORT WING        0730          230/ 11/ 17 1007.8R
SAXON HARBOR     0830   57     230/  9/ 15 1007.1R
$$

LMZ867-665-643>646-221000-
LAKE MICHIGAN

STATION/POSITION TIME  TEMP    WIND        PRES    WAVE
                       AIR SEA DIR/SP/G            HT/PER
                 (UTC) (F)     (DEG/KT/KT) (MB)    (FT/S)
S GREEN BAY BUOY 0830   62 58  180/ 14/ 16 1011.5F
N MID LAKE BUOY  0750   63 58  180/ 23/ 27 1013.6F   6/ 7
NORTHPORT PIER   0840   60     160/  9/ 18 1012.5F
KEWAUNEE LAKESHO 0830   54     170/ 12/ 13 1012.2F
SHEBOYGAN LAKESH 0800   57     180/ 21/ 22 1013.1F
PORT WASHINGTON  0840   56     200/  5/  9 1014.2F
ATWATER BUOY     0709   57 52  160/ 14/ 17 1014.2
MILWAUKEE LAKESH 0830   57     150/ 14/ 15   N/A
S MID LAKE BUOY  0750   63 61  140/ 17/ 21 1015.4F   4/ 5
KENOSHA   LAKESH 0800   58     170/ 11/ 15 1013.9
$$

TC  - TEMPERATURE IN CELSIUS
VSB - VISIBILITY IN STATUTE MILES
WCI - WIND CHILL INDEX
HX  - HEAT INDEX





USA.gov is the U.S. government's official web portal to all federal, state and local government web resources and services.